Weather History for Aurora, NE

Change the Weather History Date:

Thursday, April 3, 2014

  Actual Average Record
Temperature  
Mean Temperature 36 °F -  
Max Temperature 38 °F 56 °F 84 °F (1981)
Min Temperature 33 °F 33 °F 10 °F (1975)
Degree Days  
Heating Degree Days 30    
Moisture  
Dew Point 37 °F    
Average Humidity 100    
Maximum Humidity 100    
Minimum Humidity 97    
Precipitation  
Precipitation 0.22 in - - ()
Sea Level Pressure  
Sea Level Pressure 29.77 in    
Wind  
Wind Speed 15 mph (North)    
Max Wind Speed 22 mph    
Max Gust Speed 30 mph    
Visibility 2 miles    
Events Rain , Snow , Thunderstorm    
Averages and records for this station are not official NWS values.
T = Trace of Precipitation, MM = Missing Value Source: NWS Daily Summary

Daily Weather History Graph

Daily Weather History Graph

Search for Another Location

Airport:

Trip Planner

Search our weather history database for the weather conditions in past years. The results will help you decide how hot, cold, wet, or windy it might be!

Date:

Astronomy

Apr. 03, 2014 Rise Set
Actual Time 7:12 AM CDT 7:59 PM CDT
Civil Twilight 6:44 AM CDT 8:26 PM CDT
Nautical Twilight 6:11 AM CDT 8:59 PM CDT
Astronomical Twilight 5:37 AM CDT 9:34 PM CDT
Moon 9:40 AM CDT (4/3) No Moon Set
Length of Visible Light 13h 42m
Length of Day
12h 46m
Waxing Crescent, 17% of the Moon is Illuminated
Apr 3
Waxing Crescent
Apr 7
First Quarter
Apr 15
Full
Apr 22
Last Quarter
Apr 29
New

Hourly Weather History & Observations

Time (CDT) Temp. Windchill Dew Point Humidity Pressure Visibility Wind Dir Wind Speed Gust Speed Precip Events Conditions
12:15 AM 38.7 °F 31.8 °F 38.7 °F 100% 29.79 in 1.0 mi NE 10.4 mph - N/A   Overcast
12:35 AM 38.7 °F 32.4 °F 38.7 °F 100% 29.78 in 1.0 mi NNE 9.2 mph - N/A   Overcast
12:55 AM 38.7 °F 31.4 °F 38.7 °F 100% 29.77 in 0.8 mi NNE 11.5 mph - N/A   Overcast
1:15 AM 38.7 °F 30.9 °F 38.7 °F 100% 29.77 in 1.0 mi NNE 12.7 mph - N/A   Overcast
1:35 AM 38.5 °F 29.9 °F 38.5 °F 100% 29.75 in 1.2 mi North 15.0 mph - N/A   Overcast
1:55 AM 38.5 °F 31.1 °F 38.5 °F 100% 29.75 in 1.2 mi NNE 11.5 mph - N/A   Overcast
2:15 AM 38.7 °F 31.8 °F 38.7 °F 100% 29.77 in 1.0 mi NNE 10.4 mph - N/A Thunderstorm Overcast
2:35 AM 38.7 °F 30.1 °F 38.7 °F 100% 29.76 in 1.0 mi North 15.0 mph - N/A   Overcast
2:55 AM 38.7 °F 30.5 °F 38.7 °F 100% 29.77 in 1.0 mi North 13.8 mph - N/A   Overcast
3:15 AM 38.7 °F 29.8 °F 38.7 °F 100% 29.73 in 1.8 mi North 16.1 mph - N/A Rain Light Rain
3:35 AM 38.7 °F 30.1 °F 38.7 °F 100% 29.73 in 2.0 mi NNE 15.0 mph - N/A   Overcast
3:55 AM 38.7 °F 29.8 °F 38.7 °F 100% 29.72 in 3.0 mi NNE 16.1 mph 20.7 mph N/A Rain Light Rain
4:15 AM 38.7 °F 30.5 °F 38.7 °F 100% 29.74 in 4.0 mi NNE 13.8 mph - N/A Rain Light Rain
4:35 AM 38.5 °F 29.9 °F 38.5 °F 100% 29.75 in 4.0 mi North 15.0 mph - N/A   Overcast
4:55 AM 38.5 °F 30.3 °F 38.5 °F 100% 29.73 in 3.0 mi NNE 13.8 mph - N/A   Overcast
5:15 AM 38.3 °F 29.3 °F 38.3 °F 100% 29.73 in 3.0 mi NNE 16.1 mph - N/A   Overcast
5:35 AM 38.3 °F 29.7 °F 38.3 °F 100% 29.72 in 2.0 mi NNE 15.0 mph - N/A   Overcast
5:55 AM 37.9 °F 28.2 °F 37.9 °F 100% 29.72 in 2.0 mi NNE 18.4 mph - N/A   Overcast
6:15 AM 37.8 °F 29.4 °F 37.8 °F 100% 29.72 in 1.8 mi NNE 13.8 mph - N/A   Overcast
6:35 AM 37.8 °F 29.4 °F 37.8 °F 100% 29.72 in 1.2 mi NNE 13.8 mph - N/A   Overcast
6:55 AM 37.6 °F 28.8 °F 37.6 °F 100% 29.73 in 1.0 mi North 15.0 mph - N/A   Overcast
7:15 AM 37.4 °F 28.2 °F 37.4 °F 100% 29.74 in 0.8 mi North 16.1 mph - N/A   Overcast
7:35 AM 37.4 °F 28.5 °F 37.4 °F 100% 29.74 in 0.8 mi North 15.0 mph - N/A   Overcast
7:55 AM 37.4 °F 28.2 °F 37.4 °F 100% 29.75 in 0.8 mi North 16.1 mph - N/A   Light Drizzle
8:15 AM 37.0 °F 28.1 °F 37.0 °F 100% 29.74 in 0.8 mi North 15.0 mph 23.0 mph N/A   Light Drizzle
8:35 AM 37.0 °F 27.0 °F 37.0 °F 100% 29.75 in 1.0 mi North 18.4 mph - 0.01 in Rain Light Rain
8:55 AM 37.0 °F 26.7 °F 37.0 °F 100% 29.75 in 1.0 mi North 19.6 mph 23.0 mph 0.01 in   Light Drizzle
9:15 AM 37.0 °F 27.4 °F 37.0 °F 100% 29.76 in 1.2 mi North 17.3 mph - N/A Rain Light Rain
9:35 AM 37.0 °F 27.0 °F 37.0 °F 100% 29.75 in 1.5 mi North 18.4 mph 21.9 mph 0.01 in Rain Light Rain
9:55 AM 36.7 °F 26.0 °F 36.7 °F 100% 29.75 in 2.5 mi North 20.7 mph 26.5 mph 0.02 in   Light Drizzle
10:15 AM 36.7 °F 26.9 °F 36.7 °F 100% 29.76 in 3.0 mi North 17.3 mph 21.9 mph N/A   Overcast
10:35 AM 36.9 °F 27.1 °F 36.9 °F 100% 29.76 in 2.5 mi North 17.3 mph 25.3 mph 0.01 in   Overcast
10:55 AM 36.9 °F 25.9 °F 36.9 °F 100% 29.76 in 2.0 mi North 21.9 mph 25.3 mph 0.01 in   Overcast
11:15 AM 36.9 °F 26.8 °F 36.9 °F 100% 29.75 in 2.5 mi North 18.4 mph 23.0 mph N/A Rain Light Rain
11:55 AM 36.9 °F 26.2 °F 36.9 °F 100% 29.75 in 2.5 mi North 20.7 mph 26.5 mph 0.01 in   Overcast
12:15 PM 36.7 °F 26.9 °F 36.7 °F 100% 29.75 in 2.5 mi North 17.3 mph 27.6 mph N/A   Overcast
12:35 PM 36.9 °F 26.8 °F 36.9 °F 100% 29.74 in 2.5 mi North 18.4 mph 27.6 mph N/A   Overcast
1:15 PM 37.2 °F 27.9 °F 37.2 °F 100% 29.73 in 2.5 mi North 16.1 mph 25.3 mph N/A   Overcast
1:35 PM 36.9 °F 26.5 °F 36.9 °F 100% 29.73 in 2.5 mi North 19.6 mph 29.9 mph N/A   Overcast
1:55 PM 36.5 °F 25.7 °F 36.5 °F 100% 29.74 in 2.5 mi North 20.7 mph 27.6 mph N/A   Overcast
2:15 PM 36.5 °F 26.0 °F 36.5 °F 100% 29.75 in 2.5 mi North 19.6 mph 26.5 mph N/A   Overcast
2:35 PM 36.5 °F 26.7 °F 36.5 °F 100% 29.74 in 2.5 mi North 17.3 mph - N/A   Overcast
2:55 PM 36.5 °F 26.0 °F 36.5 °F 100% 29.75 in 2.0 mi North 19.6 mph 24.2 mph 0.01 in Rain Light Rain
3:15 PM 36.1 °F 25.2 °F 36.1 °F 100% 29.76 in 2.0 mi North 20.7 mph 27.6 mph N/A   Light Drizzle
3:35 PM 36.0 °F 25.3 °F 36.0 °F 100% 29.76 in 2.5 mi North 19.6 mph 24.2 mph 0.01 in Rain Light Rain
3:55 PM 34.7 °F 24.0 °F 34.7 °F 100% 29.77 in 1.8 mi North 18.4 mph - 0.02 in Snow Light Snow
4:15 PM 34.5 °F 24.1 °F 34.5 °F 100% 29.76 in 3.0 mi North 17.3 mph - 0.02 in Rain Light Rain
4:35 PM 34.7 °F 24.0 °F 34.7 °F 100% 29.77 in 4.0 mi North 18.4 mph - 0.05 in Snow Light Snow
4:55 PM 34.7 °F 23.7 °F 34.7 °F 100% 29.78 in 3.0 mi North 19.6 mph - 0.07 in Rain Light Rain
5:15 PM 34.7 °F 24.0 °F 34.7 °F 100% 29.78 in 2.5 mi North 18.4 mph 21.9 mph 0.01 in Rain Light Rain
5:35 PM 34.9 °F 24.9 °F 34.9 °F 100% 29.79 in 3.0 mi NNW 16.1 mph 24.2 mph 0.02 in Snow Light Snow
5:55 PM 34.3 °F 22.9 °F 34.3 °F 100% 29.79 in 1.2 mi NNW 20.7 mph 25.3 mph 0.03 in Snow Light Snow
6:15 PM 34.0 °F 22.7 °F 34.0 °F 100% 29.80 in 1.0 mi NNW 19.6 mph 27.6 mph N/A Snow Light Snow
6:35 PM 34.0 °F 22.4 °F 34.0 °F 100% 29.80 in 1.0 mi North 20.7 mph - 0.01 in Snow Light Snow
6:55 PM 34.0 °F 23.0 °F 34.0 °F 100% 29.81 in 1.5 mi NNW 18.4 mph 25.3 mph 0.02 in Snow Light Snow
7:15 PM 34.0 °F 22.1 °F 34.0 °F 100% 29.80 in 2.5 mi NNW 21.9 mph 25.3 mph N/A Snow Light Snow
7:35 PM 34.2 °F 22.6 °F 34.2 °F 100% 29.82 in 2.0 mi NNW 20.7 mph 28.8 mph 0.01 in Snow Light Snow
7:55 PM 34.0 °F 23.0 °F 34.0 °F 100% 29.82 in 1.0 mi NNW 18.4 mph 26.5 mph 0.01 in Snow Snow
8:15 PM 33.8 °F 23.2 °F 33.8 °F 100% 29.84 in 1.0 mi NNW 17.3 mph 27.6 mph N/A Snow Snow
8:35 PM 34.0 °F 23.4 °F 34.0 °F 100% 29.86 in 1.2 mi NNW 17.3 mph - 0.01 in Snow Light Snow
8:55 PM 33.8 °F 23.5 °F 33.8 °F 100% 29.87 in 1.2 mi NW 16.1 mph - 0.01 in Snow Light Snow
9:15 PM 33.8 °F 22.8 °F 33.8 °F 100% 29.88 in 1.2 mi NW 18.4 mph 21.9 mph N/A Snow Light Snow
9:35 PM 33.8 °F 23.9 °F 33.8 °F 100% 29.89 in 1.0 mi NW 15.0 mph - N/A Snow Snow
11:15 PM 33.8 °F 23.2 °F 33.8 °F 100% 29.92 in 1.5 mi NW 17.3 mph - N/A Snow Light Snow
11:35 PM 34.0 °F 23.0 °F 34.0 °F 100% 29.92 in 4.0 mi NW 18.4 mph - N/A   Overcast
11:55 PM 34.7 °F 23.1 °F 34.0 °F 97% 29.93 in 10.0 mi NW 21.9 mph 27.6 mph N/A   Overcast